TimeAKDT,TemperatureF,Dew PointF,Humidity,Sea Level PressureIn,VisibilityMPH,Wind Direction,Wind SpeedMPH,Gust SpeedMPH,PrecipitationIn,Events,Conditions,WindDirDegrees,DateUTC
12:06 AM,51.8,51.8,100,29.99,3.0,Calm,Calm,-,N/A,,Mostly Cloudy,0,2013-09-03 08:06:00
12:14 AM,51.8,51.8,100,29.99,3.0,Calm,Calm,-,N/A,,Scattered Clouds,0,2013-09-03 08:14:00
12:16 AM,51.8,51.8,100,29.99,1.5,Calm,Calm,-,N/A,,Scattered Clouds,0,2013-09-03 08:16:00
12:30 AM,51.8,51.8,100,29.99,1.8,Calm,Calm,-,N/A,,Mostly Cloudy,0,2013-09-03 08:30:00
12:33 AM,51.8,51.8,100,29.99,3.0,Calm,Calm,-,N/A,,Mostly Cloudy,0,2013-09-03 08:33:00
12:38 AM,51.8,51.8,100,29.99,1.8,Calm,Calm,-,N/A,,Mostly Cloudy,0,2013-09-03 08:38:00
12:41 AM,51.8,51.8,100,29.99,0.8,Calm,Calm,-,N/A,,Mist,0,2013-09-03 08:41:00
12:53 AM,51.1,50.0,96,29.99,0.5,Calm,Calm,-,N/A,Fog,Fog,0,2013-09-03 08:53:00
1:53 AM,53.1,52.0,96,29.98,0.2,Calm,Calm,-,N/A,Fog,Fog,0,2013-09-03 09:53:00
2:53 AM,52.0,52.0,100,29.97,0.2,Calm,Calm,-,N/A,Fog,Fog,0,2013-09-03 10:53:00
3:53 AM,52.0,52.0,100,29.98,0.2,Calm,Calm,-,N/A,Fog,Fog,0,2013-09-03 11:53:00
4:53 AM,52.0,51.1,97,29.98,0.2,Calm,Calm,-,0.01,Fog,Fog,0,2013-09-03 12:53:00
5:53 AM,51.1,51.1,100,29.99,0.2,Calm,Calm,-,N/A,Fog,Fog,0,2013-09-03 13:53:00
6:53 AM,51.1,51.1,100,29.99,0.2,Calm,Calm,-,N/A,Fog,Fog,0,2013-09-03 14:53:00
7:53 AM,53.1,53.1,100,29.99,0.2,Calm,Calm,-,N/A,Fog,Fog,0,2013-09-03 15:53:00
8:53 AM,55.0,55.0,100,29.99,0.5,Calm,Calm,-,N/A,Fog,Fog,0,2013-09-03 16:53:00
9:02 AM,55.4,55.4,100,29.99,1.5,Calm,Calm,-,N/A,,Overcast,0,2013-09-03 17:02:00
9:18 AM,57.2,55.4,94,29.99,0.8,Calm,Calm,-,N/A,,Mist,0,2013-09-03 17:18:00
9:31 AM,57.2,57.2,100,29.98,1.8,Calm,Calm,-,N/A,,Overcast,0,2013-09-03 17:31:00
9:34 AM,57.2,57.2,100,29.98,3.0,Calm,Calm,-,N/A,,Overcast,0,2013-09-03 17:34:00
9:53 AM,59.0,57.0,93,29.98,10.0,Calm,Calm,-,N/A,,Partly Cloudy,0,2013-09-03 17:53:00
10:53 AM,64.0,59.0,84,29.98,10.0,SW,4.6,-,N/A,,Clear,230,2013-09-03 18:53:00
11:53 AM,66.9,57.9,73,29.98,10.0,SW,4.6,-,N/A,,Clear,220,2013-09-03 19:53:00
12:53 PM,66.9,57.0,70,29.98,10.0,WSW,8.1,-,N/A,,Clear,240,2013-09-03 20:53:00
1:53 PM,66.9,55.9,68,29.97,10.0,SW,5.8,-,N/A,,Clear,230,2013-09-03 21:53:00
2:53 PM,66.0,55.9,70,29.97,10.0,SW,9.2,-,N/A,,Clear,230,2013-09-03 22:53:00
3:53 PM,66.0,55.0,68,29.97,10.0,SW,9.2,-,N/A,,Clear,230,2013-09-03 23:53:00
4:53 PM,63.0,55.0,75,29.95,10.0,SW,5.8,-,N/A,,Clear,220,2013-09-04 00:53:00
5:53 PM,63.0,55.0,75,29.95,10.0,SSW,4.6,-,N/A,,Clear,200,2013-09-04 01:53:00
6:53 PM,57.9,55.0,90,29.96,10.0,South,5.8,-,N/A,,Clear,190,2013-09-04 02:53:00
7:23 PM,57.2,55.4,94,29.97,10.0,SSW,4.6,-,N/A,,Partly Cloudy,200,2013-09-04 03:23:00
7:39 PM,57.2,55.4,94,29.97,10.0,Variable,4.6,-,N/A,,Mostly Cloudy,0,2013-09-04 03:39:00
7:53 PM,57.0,55.0,93,29.98,10.0,South,3.5,-,N/A,,Overcast,190,2013-09-04 03:53:00
8:32 PM,57.2,53.6,88,29.98,10.0,Calm,Calm,-,N/A,,Mostly Cloudy,0,2013-09-04 04:32:00
8:53 PM,55.9,54.0,93,29.98,10.0,South,3.5,-,N/A,,Mostly Cloudy,190,2013-09-04 04:53:00
9:23 PM,55.4,53.6,94,29.98,10.0,Calm,Calm,-,N/A,,Mostly Cloudy,0,2013-09-04 05:23:00
9:53 PM,57.0,54.0,89,29.97,10.0,Calm,Calm,-,N/A,,Overcast,0,2013-09-04 05:53:00
10:53 PM,57.0,54.0,89,29.98,10.0,Variable,4.6,-,N/A,,Overcast,0,2013-09-04 06:53:00
11:53 PM,57.0,54.0,89,29.99,10.0,Calm,Calm,-,N/A,,Overcast,0,2013-09-04 07:53:00